This demonstration page uses our WeatherBlox Daily Observations layout. Learn more.

Left ArrowRight Arrow

Hourly Observations for October 26, 2021

Temp ( °F °C ) Dew Point ( °F °C ) Humidity (%) Winds ( mph kmh ) Pressure ( in mb ) Visibility ( mi km ) Precip ( " mm )
12:53 am 00:53 Cloudy with Light Rain 50 10 47 8.3 89 89 NW 12 19 29.91 1013 10 16 0.00 0.00
1:27 am 01:27 Cloudy 50 10 45 7.2 83 83 NNW 10 17 29.93 1013 10 16 0.00 0.00
1:53 am 01:53 Cloudy 50 10 44 6.7 80 80 NNW 12 19 29.93 1013 10 16 0.00 0.00
2:53 am 02:53 Cloudy 50 10 44 6.7 80 80 NNW 10 17 29.94 1014 10 16 N/A
3:53 am 03:53 Cloudy 50 10 42 5.6 74 74 NW 12 19 29.97 1015 10 16 N/A
4:53 am 04:53 Cloudy 49 9.4 41 5 74 74 N 13 20 29.99 1016 10 16 N/A
5:53 am 05:53 Cloudy 49 9.4 40 4.4 71 71 N 10 17 30.01 1016 10 16 N/A
6:46 am 06:46 Cloudy 48 8.9 38 3.3 68 68 N 8 13 30.03 1017 10 16 N/A
6:53 am 06:53 Cloudy 48 8.9 38 3.3 68 68 NNW 6 9 30.02 1017 10 16 N/A
7:53 am 07:53 Cloudy 48 8.9 39 3.9 71 71 NNW 6 9 30.04 1017 10 16 N/A
8:53 am 08:53 Cloudy 48 8.9 40 4.4 74 74 N 12 19 30.05 1018 10 16 N/A
9:53 am 09:53 Mostly Sunny 50 10 41 5 71 71 NNW 7 11 30.05 1018 10 16 N/A
10:25 am 10:25 Mostly Cloudy 50 10 41 5 71 71 NNW 10 17 30.06 1018 10 16 N/A
10:53 am 10:53 Mostly Cloudy 50 10 40 4.4 68 68 NNW 9 15 30.06 1018 10 16 N/A
11:27 am 11:27 Mostly Cloudy 53 11.7 42 5.6 66 66 N 9 15 30.06 1018 10 16 N/A
11:38 am 11:38 Mostly Cloudy 51 10.6 40 4.4 66 66 NNW 9 15 30.07 1018 10 16 N/A
11:45 am 11:45 Partly Cloudy 51 10.6 40 4.4 66 66 N 7 11 30.07 1018 10 16 N/A
11:53 am 11:53 Mostly Cloudy 53 11.7 41 5 64 64 NNW 10 17 30.07 1018 10 16 N/A
12:53 pm 12:53 Partly Cloudy 53 11.7 39 3.9 59 59 NNW 9 15 30.06 1018 10 16 N/A
1:53 pm 13:53 Mostly Sunny 55 12.8 38 3.3 53 53 NW 10 17 30.03 1017 10 16 N/A
2:53 pm 14:53 Mostly Sunny 56 13.3 37 2.8 49 49 NNW 8 13 30.01 1016 10 16 N/A
3:53 pm 15:53 Mostly Sunny 57 13.9 36 2.2 45 45 NNW 8 13 30.01 1016 10 16 N/A
4:53 pm 16:53 Sunny 57 13.9 36 2.2 45 45 NNW 10 17 30.01 1016 10 16 N/A
5:53 pm 17:53 Sunny 54 12.2 35 1.7 49 49 NNW 7 11 30.01 1016 10 16 N/A
6:53 pm 18:53 Clear 49 9.4 35 1.7 59 59 NNW 5 7 30.01 1016 10 16 N/A
7:53 pm 19:53 Clear 43 6.1 38 3.3 82 82 N N/A 30.03 1017 10 16 N/A
8:53 pm 20:53 Clear 42 5.6 37 2.8 82 82 NNW 3 6 30.04 1017 10 16 N/A
9:53 pm 21:53 Clear 41 5 37 2.8 86 86 N 5 7 30.05 1018 10 16 N/A
10:53 pm 22:53 Clear 37 2.8 34 1.1 89 89 N N/A 30.06 1018 10 16 N/A
11:53 pm 23:53 Clear 37 2.8 35 1.7 93 93 N N/A 30.04 1017 10 16 N/A

Powered by AerisWeather